Location: Innerarity Island Observatory
(30.3139°N, 87.4867°W)
Time: 06:22:52
(UTC-05:00)

Amateur Radio Satellites - All Passes

Search period start: 06 July 2015 05:52
Search period end: 07 July 2015 05:52
Location: Innerarity Island Observatory, 30.3139°N, 87.4867°W

Satellite Date Start Highest point End Downlink Frequencies (MHz)
Time Altitude Azimuth
BEESAT 3 06 Jul 06:05:35 06:09:16 36° 113° (ESE) 06:13:03 437.485
PRISM 06 Jul 06:07:10 06:08:48 12° 70° (ENE) 06:10:40 437.425
JAS-2 06 Jul 06:09:58 06:13:17 13° 293° (WNW) 06:16:12 435.910
BEESAT 2 06 Jul 06:20:14 06:24:04 41° 114° (ESE) 06:27:58 435.950
DANDE 06 Jul 06:26:53 06:27:31 10° 93° (E) 06:28:48 436.750
ISS 06 Jul 06:33:48 06:36:58 53° 132° (SE) 06:40:09 145.825
O/OREOS (USA 219) 06 Jul 06:37:21 06:41:33 42° 105° (ESE) 06:45:47 437.305
CUBESAT XI-V 06 Jul 06:37:37 06:42:18 69° 259° (WSW) 06:47:01 437.345
STRAND 1 06 Jul 06:38:58 06:43:40 38° 73° (ENE) 06:48:27 437.568
AO-7 06 Jul 06:39:06 06:45:08 22° 299° (WNW) 06:50:48 29.400- 29.500
CUTE-I 06 Jul 06:46:45 06:51:56 50° 100° (E) 06:57:06 437.470
Cosmos 2504 06 Jul 06:46:57 06:53:19 36° 282° (WNW) 06:59:31 435.465 / 435.565
CUSAT 1 06 Jul 06:48:26 06:53:34 24° 96° (E) 06:58:01 437.405
VERMONT LUNAR 06 Jul 06:50:27 06:53:22 37° 337° (NNW) 06:56:17 437.305
Cubesat XI-IV 06 Jul 07:21:25 07:26:46 71° 285° (WNW) 07:32:05 437.490
PHONESAT 2.4 06 Jul 07:34:03 07:37:27 72° 150° (SSE) 07:40:53 2401.200-2431.200
PRISM 06 Jul 07:40:00 07:43:55 39° 261° (W) 07:47:51 437.425
BEESAT 3 06 Jul 07:44:55 07:47:23 15° 308° (NW) 07:49:44 437.485
AIST 2 06 Jul 07:50:46 07:55:00 75° 297° (WNW) 07:59:16 435.215
BEESAT 2 06 Jul 08:00:11 08:02:22 14° 309° (NW) 08:04:23 435.950
DANDE 06 Jul 08:03:05 08:10:45 89° 99° (E) 08:16:41 436.750
AUBIESAT-1 06 Jul 08:05:15 08:07:34 18° 68° (ENE) 08:10:01 437.475
ISS 06 Jul 08:12:10 08:13:38 12° 327° (NNW) 08:15:00 145.825
O/OREOS (USA 219) 06 Jul 08:19:01 08:21:15 13° 300° (WNW) 08:23:15 437.305
STRAND 1 06 Jul 08:19:24 08:23:02 19° 266° (W) 08:26:28 437.568
CUTE-I 06 Jul 08:28:22 08:31:39 16° 292° (WNW) 08:34:41 437.470
VERMONT LUNAR 06 Jul 08:29:03 08:30:48 14° 352° (N) 08:32:33 437.305
CUSAT 1 06 Jul 08:29:56 08:36:08 36° 279° (W) 08:40:58 437.405
GOMX 1 06 Jul 08:33:34 08:37:20 34° 98° (E) 08:41:09 467.674
COMPASS 1 06 Jul 08:35:25 08:35:29 10° 91° (E) 08:35:51 437.405
M-CUBED/EXP-1 PRIME 06 Jul 08:40:25 08:43:41 81° 73° (ENE) 08:47:03 437.505
CUTE 1.7 + AOD 2 06 Jul 08:48:37 08:52:14 27° 96° (E) 08:55:56 437.475
HO-68 06 Jul 08:49:41 08:56:14 39° 99° (E) 09:02:52 435.675
CANX-2 06 Jul 08:52:04 08:55:57 34° 97° (E) 08:59:53 2200.000
GONETS M04 06 Jul 09:01:14 09:09:59 77° 94° (E) 09:18:45
DOVE 4 06 Jul 09:07:56 09:12:00 54° 100° (E) 09:16:08 437.250
BRITE-PL 06 Jul 09:08:06 09:12:06 42° 285° (WNW) 09:16:00 437.365/2234.400
PHONESAT 2.4 06 Jul 09:12:51 09:15:42 23° 344° (NNW) 09:18:32 2401.200-2431.200
UWE-3 06 Jul 09:26:51 09:28:22 12° 92° (E) 09:30:10 435.000/436.395/437.385
SEEDS 06 Jul 09:33:13 09:37:30 82° 101° (E) 09:41:46 437.485
CINEMA 3 06 Jul 09:39:06 09:43:14 54° 100° (E) 09:47:30 145.822/145.860
AAUSAT CUBESAT 2 06 Jul 09:39:23 09:43:34 62° 100° (E) 09:47:44 437.432
AUBIESAT-1 06 Jul 09:40:18 09:42:20 15° 261° (W) 09:44:15 437.475
DELFI C3 06 Jul 09:42:35 09:45:07 17° 94° (E) 09:47:49 145.870
ANTELSAT 06 Jul 09:44:21 09:46:35 14° 71° (ENE) 09:49:00 437.575/2403.000
Cosmos 2499 06 Jul 09:49:16 09:54:41 25° 88° (E) 10:00:21 435.465 / 435.565
DANDE 06 Jul 09:52:12 09:54:06 11° 287° (WNW) 09:55:21 436.750
TIGRISAT 06 Jul 09:55:04 09:58:00 19° 72° (ENE) 10:01:02 435.000
VERMONT LUNAR 06 Jul 10:06:39 10:08:31 15° 9° (N) 10:10:23 437.305
COMPASS 1 06 Jul 10:07:22 10:11:26 46° 284° (WNW) 10:15:29 437.405
ZACube-1 06 Jul 10:07:58 10:11:43 30° 97° (E) 10:15:35 437.345
Oscar 11 06 Jul 10:12:00 10:16:19 64° 101° (E) 10:20:37 145.826/435.025
HUMSAT D 06 Jul 10:12:12 10:13:48 12° 92° (E) 10:15:39 437.325/437.525
RS-15 06 Jul 10:13:08 10:23:05 32° 47° (NE) 10:33:42 29.354- 29.394
GOMX 1 06 Jul 10:13:12 10:15:15 13° 289° (WNW) 10:17:05 467.674
CUBEBUG 2 06 Jul 10:14:04 10:18:17 65° 101° (E) 10:22:38 437.445
QB50P2 06 Jul 10:19:01 10:21:16 15° 71° (ENE) 10:23:43 145.880/145.840
POPSAT HIP 1 06 Jul 10:19:19 10:21:28 14° 71° (ENE) 10:23:48 437.405
CUTE 1.7 + AOD 2 06 Jul 10:24:57 10:27:59 19° 288° (WNW) 10:30:53 437.475
CANX-2 06 Jul 10:29:05 10:31:38 15° 289° (WNW) 10:33:59 2200.000
UNISAT 6 06 Jul 10:34:15 10:38:29 62° 76° (ENE) 10:42:43 437.425
HO-68 06 Jul 10:37:37 10:43:50 32° 292° (WNW) 10:49:54 435.675
AISAT 06 Jul 10:40:18 10:41:27 11° 92° (E) 10:42:55 437.250
FUNcube-1 06 Jul 10:42:47 10:47:03 84° 101° (ESE) 10:51:25 145.935
PHONESAT 2.4 06 Jul 10:52:26 10:54:28 15° 0° (N) 10:56:31 2401.200-2431.200
QB50P1 06 Jul 10:56:08 11:00:07 41° 75° (ENE) 11:04:07 145.935-145.965
UWE-3 06 Jul 11:01:04 11:05:06 41° 285° (WNW) 11:09:11 435.000/436.395/437.385
GONETS M04 06 Jul 11:02:10 11:07:51 17° 292° (WNW) 11:12:56
NANOSAT C BR1 06 Jul 11:09:18 11:13:29 61° 76° (ENE) 11:17:40 145.865
50 SAT 06 Jul 11:09:19 11:12:45 30° 97° (E) 11:16:15 437.505
DUCHIFAT 1 06 Jul 11:15:28 11:19:41 72° 76° (ENE) 11:23:53 145.980
DELFI C3 06 Jul 11:16:46 11:20:13 26° 286° (WNW) 11:23:36 145.870
ESTCUBE 1 06 Jul 11:17:53 11:21:15 21° 95° (E) 11:24:45 437.505/2401.250
ANTELSAT 06 Jul 11:19:11 11:23:07 34° 262° (W) 11:27:00 437.575/2403.000
POLYITAN 1 06 Jul 11:23:13 11:27:28 85° 258° (WSW) 11:31:43 437.675
BUGSAT 1 06 Jul 11:23:16 11:27:25 56° 76° (ENE) 11:31:32 437.445
VELOX 1 06 Jul 11:26:19 11:30:29 42° 99° (E) 11:34:39 145.980
DX 1 06 Jul 11:27:42 11:32:04 89° 285° (WNW) 11:36:23 434.975-435.025
TIGRISAT 06 Jul 11:30:58 11:34:36 26° 263° (W) 11:38:09 435.000
Cosmos 2499 06 Jul 11:40:58 11:47:34 40° 282° (WNW) 11:54:08 435.465 / 435.565
VERMONT LUNAR 06 Jul 11:42:54 11:45:55 43° 25° (NNE) 11:48:56 437.305
ZACube-1 06 Jul 11:45:04 11:47:53 17° 288° (WNW) 11:50:34 437.345
UKube-1 06 Jul 11:45:31 11:49:47 58° 284° (WNW) 11:54:00 .
HUMSAT D 06 Jul 11:45:49 11:49:43 38° 285° (WNW) 11:53:37 437.325/437.525
QB50P2 06 Jul 11:53:01 11:56:54 34° 262° (W) 12:00:45 145.880/145.840
POPSAT HIP 1 06 Jul 11:53:09 11:57:04 35° 262° (W) 12:00:57 437.405
AISAT 06 Jul 12:14:07 12:18:19 45° 285° (WNW) 12:22:29 437.250
TISAT 1 06 Jul 12:18:14 12:20:11 13° 93° (E) 12:22:20 437.305
RS-15 06 Jul 12:24:44 12:36:32 69° 247° (WSW) 12:48:36 29.354- 29.394
CUBEBUG 1 06 Jul 12:25:09 12:29:28 67° 284° (WNW) 12:33:45 437.445
PHONESAT 2.4 06 Jul 12:30:21 12:33:13 24° 17° (NNE) 12:36:08 2401.200-2431.200
QB50P1 06 Jul 12:34:39 12:36:12 11° 268° (W) 12:37:29 145.935-145.965
50 SAT 06 Jul 12:44:59 12:47:08 14° 289° (WNW) 12:49:08 437.505
YUBILEINY 06 Jul 12:51:19 12:52:28 10° 63° (ENE) 12:54:34 435.215
ESTCUBE 1 06 Jul 12:54:18 12:58:07 26° 287° (WNW) 13:01:47 437.505/2401.250
VELOX 1 06 Jul 13:04:37 13:06:43 13° 291° (WNW) 13:08:34 145.980
Oscar 19 06 Jul 13:15:07 13:20:02 49° 74° (ENE) 13:24:59 437.125/150
SPROUT 06 Jul 13:18:58 13:23:10 57° 284° (WNW) 13:27:20 437.525
VERMONT LUNAR 06 Jul 13:20:12 13:22:41 21° 217° (SW) 13:25:08 437.305
ITAMSAT 1 06 Jul 13:33:05 13:36:28 18° 69° (ENE) 13:40:05 435.822/435.867
Gurwin Techsat 1B 06 Jul 13:39:00 13:42:57 23° 70° (ENE) 13:47:05 435.225
JUGNU 06 Jul 13:40:55 13:43:25 13° 162° (SSE) 13:46:04 437.505
BEESAT 06 Jul 13:41:56 13:45:23 20° 95° (E) 13:48:59 436.000
TISAT 1 06 Jul 13:52:17 13:56:06 34° 286° (WNW) 13:59:51 437.305
SWISSCUBE 06 Jul 13:57:11 14:01:30 33° 98° (E) 14:05:51 437.505
ITUPSAT 1 06 Jul 14:03:32 14:07:55 35° 98° (E) 14:12:19 437.325
PHONESAT 2.4 06 Jul 14:08:00 14:11:27 68° 212° (SSW) 14:14:54 2401.200-2431.200
PCSat 06 Jul 14:16:14 14:20:37 26° 108° (ESE) 14:25:08 145.827
JAS-2 06 Jul 14:31:32 14:34:34 16° 68° (ENE) 14:37:54 435.910
ISS 06 Jul 14:41:54 14:45:02 47° 43° (NE) 14:48:09 145.825
YUBILEINY 06 Jul 14:42:13 14:51:00 77° 83° (E) 14:59:49 435.215
RS-15 06 Jul 14:45:36 14:47:48 10° 258° (WSW) 14:48:20 29.354- 29.394
AIST 1 06 Jul 14:53:40 14:57:21 28° 91° (E) 15:01:08
Cosmos 2491 06 Jul 14:56:35 15:05:11 61° 92° (E) 15:13:50 435.465 / 435.565
Oscar 19 06 Jul 14:56:51 14:59:42 14° 268° (W) 15:02:15 437.125/150
STARS 06 Jul 15:07:57 15:10:23 15° 93° (E) 15:13:02 437.465
SO-50 06 Jul 15:10:40 15:14:06 21° 110° (ESE) 15:17:46 436.795
ITAMSAT 1 06 Jul 15:10:46 15:15:42 42° 261° (W) 15:20:37 435.822/435.867
Gurwin Techsat 1B 06 Jul 15:17:56 15:22:45 34° 263° (W) 15:27:32 435.225
BEESAT 06 Jul 15:19:03 15:23:15 31° 288° (WNW) 15:27:24 436.000
JUGNU 06 Jul 15:27:13 15:31:56 24° 170° (S) 15:36:41 437.505
SWISSCUBE 06 Jul 15:35:43 15:39:09 19° 290° (WNW) 15:42:24 437.505
AO-7 06 Jul 15:37:00 15:45:04 58° 70° (ENE) 15:53:15 29.400- 29.500
ITUPSAT 1 06 Jul 15:42:13 15:45:34 18° 290° (WNW) 15:48:44 437.325
HORYU 2 06 Jul 15:50:04 15:54:26 65° 76° (ENE) 15:58:50 437.375
KKS-1 06 Jul 15:56:17 16:00:42 73° 284° (WNW) 16:05:06 437.445
PCSat 06 Jul 15:59:07 16:03:55 31° 301° (WNW) 16:08:41 145.827
BEESAT 3 06 Jul 16:06:49 16:10:47 56° 61° (ENE) 16:14:41 437.485
JAS-2 06 Jul 16:14:31 16:19:24 42° 262° (W) 16:24:24 435.910
AIST 2 06 Jul 16:19:29 16:21:33 14° 51° (NE) 16:23:46 435.215
BEESAT 2 06 Jul 16:22:14 16:26:17 67° 62° (ENE) 16:30:15 435.950
SRMSAT 06 Jul 16:24:07 16:28:13 19° 166° (SSE) 16:32:23 437.500
MOZHAYETS 4 06 Jul 16:30:42 16:34:16 22° 95° (E) 16:37:56
AIST 1 06 Jul 16:32:03 16:35:03 17° 285° (WNW) 16:37:54
Cosmos 2504 06 Jul 16:37:43 16:45:02 47° 80° (E) 16:52:56 435.465 / 435.565
YUBILEINY 06 Jul 16:41:48 16:47:04 16° 276° (W) 16:51:41 435.215
STARS 06 Jul 16:42:59 16:46:57 34° 286° (WNW) 16:50:52 437.465
SO-50 06 Jul 16:50:15 16:54:27 31° 304° (NW) 16:58:45 436.795
O/OREOS (USA 219) 06 Jul 16:53:01 16:57:04 32° 66° (ENE) 17:01:11 437.305
Cosmos 2491 06 Jul 16:55:54 17:02:41 23° 289° (WNW) 17:09:04 435.465 / 435.565
Cubesat XI-IV 06 Jul 17:02:35 17:03:20 10° 66° (ENE) 17:04:30 437.490
JUGNU 06 Jul 17:15:20 17:20:30 30° 180° (S) 17:25:40 437.505
AO-7 06 Jul 17:31:40 17:38:19 25° 265° (W) 17:44:38 29.400- 29.500
AIST 2 06 Jul 17:56:25 18:00:22 42° 247° (WSW) 18:04:13 435.215
CUTE-I 06 Jul 18:02:53 18:07:58 47° 74° (ENE) 18:13:08 437.470
MOZHAYETS 4 06 Jul 18:07:33 18:11:27 26° 287° (WNW) 18:15:16
SRMSAT 06 Jul 18:11:51 18:16:55 29° 175° (S) 18:21:58 437.500
Cosmos 2504 06 Jul 18:30:36 18:37:00 28° 271° (W) 18:43:28 435.465 / 435.565
O/OREOS (USA 219) 06 Jul 18:33:18 18:36:16 17° 258° (WSW) 18:39:04 437.305
Cubesat XI-IV 06 Jul 18:37:32 18:42:53 77° 257° (WSW) 18:48:17 437.490
CUBESAT XI-V 06 Jul 18:40:16 18:44:44 46° 98° (E) 18:49:12 437.345
DANDE 06 Jul 18:52:47 18:54:48 20° 78° (ENE) 18:56:54 436.750
STRAND 1 06 Jul 18:55:59 18:59:44 21° 94° (E) 19:03:38 437.568
JUGNU 06 Jul 19:04:17 19:09:04 25° 190° (S) 19:13:49 437.505
CUSAT 1 06 Jul 19:13:39 19:16:13 60° 263° (W) 19:19:03 437.405
HO-68 06 Jul 19:14:43 19:18:34 16° 63° (ENE) 19:22:49 435.675
GONETS M04 06 Jul 19:19:41 19:26:42 28° 73° (ENE) 19:34:00
PRISM 06 Jul 19:27:47 19:31:45 42° 99° (E) 19:35:42 437.425
GOMX 1 06 Jul 19:35:58 19:40:02 24° 73° (ENE) 19:44:00 467.674
CANX-2 06 Jul 19:41:34 19:43:07 12° 70° (ENE) 19:44:55 2200.000
CUTE-I 06 Jul 19:44:55 19:48:20 16° 267° (W) 19:51:29 437.470
SRMSAT 06 Jul 20:00:36 20:05:39 28° 185° (S) 20:10:39 437.500
DOVE 4 06 Jul 20:07:50 20:12:06 31° 75° (ENE) 20:16:14 437.250
BRITE-PL 06 Jul 20:11:36 20:17:09 80° 258° (WSW) 20:22:23 437.365/2234.400
CUBESAT XI-V 06 Jul 20:19:32 20:21:49 13° 291° (WNW) 20:23:50 437.345
SEEDS 06 Jul 20:20:06 20:23:32 26° 73° (ENE) 20:27:03 437.485
AAUSAT CUBESAT 2 06 Jul 20:25:26 20:28:21 19° 72° (ENE) 20:31:24 437.432
M-CUBED/EXP-1 PRIME 06 Jul 20:27:40 20:29:21 12° 97° (E) 20:31:22 437.505
STRAND 1 06 Jul 20:34:23 20:39:00 34° 288° (WNW) 20:43:32 437.568
CINEMA 3 06 Jul 20:35:46 20:39:28 26° 74° (ENE) 20:43:09 145.822/145.860
COMPASS 1 06 Jul 20:52:33 20:56:35 53° 76° (ENE) 21:00:38 437.405
JUGNU 06 Jul 20:54:46 20:57:35 13° 198° (SSW) 21:00:15 437.505
HO-68 06 Jul 20:58:30 21:05:39 77° 256° (WSW) 21:12:49 435.675
ZACube-1 06 Jul 21:00:44 21:02:09 12° 71° (ENE) 21:03:49 437.345
Oscar 11 06 Jul 21:01:46 21:05:09 24° 73° (ENE) 21:08:37 145.826/435.025
PRISM 06 Jul 21:05:15 21:06:51 12° 291° (WNW) 21:08:11 437.425
CUBEBUG 2 06 Jul 21:07:22 21:10:54 26° 74° (ENE) 21:14:27 437.445
CUTE 1.7 + AOD 2 06 Jul 21:10:50 21:14:56 51° 261° (W) 21:19:03 437.475
GOMX 1 06 Jul 21:13:31 21:18:02 29° 263° (W) 21:22:15 467.674
CANX-2 06 Jul 21:14:46 21:18:43 40° 262° (W) 21:22:41 2200.000
GONETS M04 06 Jul 21:15:36 21:23:53 50° 269° (W) 21:32:04
AUBIESAT-1 06 Jul 21:23:15 21:27:33 49° 104° (ESE) 21:32:05 437.475
FUNcube-1 06 Jul 21:33:23 21:37:02 30° 74° (ENE) 21:40:42 145.935
Cosmos 2499 06 Jul 21:36:36 21:44:20 49° 80° (E) 21:52:39 435.465 / 435.565
DOVE 4 06 Jul 21:46:15 21:49:53 20° 265° (W) 21:53:13 437.250
SRMSAT 06 Jul 21:50:17 21:54:19 19° 194° (SSW) 21:58:16 437.500
UWE-3 06 Jul 21:52:16 21:56:32 76° 77° (ENE) 22:00:43 435.000/436.395/437.385
SEEDS 06 Jul 21:56:25 21:59:20 18° 266° (W) 22:02:06 437.485
DELFI C3 06 Jul 21:57:26 22:01:25 82° 78° (ENE) 22:05:27 145.870
M-CUBED/EXP-1 PRIME 06 Jul 22:00:01 22:04:18 50° 289° (WNW) 22:08:49 437.505
AAUSAT CUBESAT 2 06 Jul 22:00:27 22:03:50 23° 265° (W) 22:07:08 437.432
CINEMA 3 06 Jul 22:13:14 22:16:39 20° 265° (W) 22:19:51 145.822/145.860
ESTCUBE 1 06 Jul 22:14:47 22:15:21 10° 68° (ENE) 22:16:14 437.505/2401.250
DX 1 06 Jul 22:17:43 22:21:43 36° 74° (ENE) 22:25:46 434.975-435.025
VELOX 1 06 Jul 22:19:08 22:22:15 20° 71° (ENE) 22:25:31 145.980
HUMSAT D 06 Jul 22:31:29 22:35:32 67° 77° (ENE) 22:39:36 437.325/437.525
UNISAT 6 06 Jul 22:32:20 22:35:37 21° 95° (E) 22:39:04 437.425
ZACube-1 06 Jul 22:34:14 22:38:14 40° 261° (W) 22:42:09 437.345
UKube-1 06 Jul 22:34:24 22:38:36 54° 75° (ENE) 22:42:52 .
Oscar 11 06 Jul 22:37:58 22:41:17 21° 265° (W) 22:44:29 145.826/435.025
CUBEBUG 2 06 Jul 22:44:33 22:47:36 18° 265° (W) 22:50:29 437.445
QB50P1 06 Jul 22:49:47 22:50:19 10° 91° (E) 22:51:09 145.935-145.965
AUBIESAT-1 06 Jul 22:59:48 23:01:59 13° 293° (WNW) 23:03:58 437.475
NANOSAT C BR1 06 Jul 23:01:15 23:03:38 15° 93° (E) 23:06:12 145.865
AISAT 06 Jul 23:05:38 23:10:06 76° 77° (ENE) 23:14:35 437.250
DUCHIFAT 1 06 Jul 23:06:56 23:09:41 18° 94° (E) 23:12:35 145.980
FUNcube-1 06 Jul 23:10:52 23:13:26 15° 266° (W) 23:15:49 145.935
BUGSAT 1 06 Jul 23:13:20 23:14:46 12° 92° (E) 23:16:27 437.445
POLYITAN 1 06 Jul 23:14:55 23:18:17 24° 96° (E) 23:21:45 437.675
CUBEBUG 1 06 Jul 23:15:20 23:19:35 47° 75° (ENE) 23:23:52 437.445
ANTELSAT 06 Jul 23:15:57 23:20:24 72° 101° (E) 23:24:56 437.575/2403.000
50 SAT 06 Jul 23:21:40 23:25:24 53° 260° (W) 23:29:09 437.505
TIGRISAT 06 Jul 23:27:06 23:31:33 86° 282° (WNW) 23:36:05 435.000
Cosmos 2499 06 Jul 23:30:30 23:37:15 28° 272° (W) 23:44:00 435.465 / 435.565
QB50P2 06 Jul 23:43:33 23:47:42 58° 100° (E) 23:51:51 145.880/145.840
POPSAT HIP 1 06 Jul 23:43:36 23:47:43 55° 100° (E) 23:51:50 437.405
ESTCUBE 1 06 Jul 23:47:19 23:51:47 57° 260° (W) 23:56:16 437.505/2401.250
VELOX 1 06 Jul 23:54:46 23:58:38 28° 263° (W) 00:02:27 145.980
DX 1 06 Jul 23:55:41 23:58:07 14° 267° (W) 00:00:19 434.975-435.025
SPROUT 07 Jul 00:07:11 00:11:20 50° 75° (ENE) 00:15:31 437.525
UNISAT 6 07 Jul 00:08:37 00:12:22 26° 287° (WNW) 00:16:06 437.425
QB50P1 07 Jul 00:22:26 00:26:27 44° 285° (WNW) 00:30:26 145.935-145.965
RS-15 07 Jul 00:30:57 00:39:41 31° 107° (ESE) 00:48:56 29.354- 29.394
NANOSAT C BR1 07 Jul 00:35:50 00:39:32 30° 286° (WNW) 00:43:12 145.865
TISAT 1 07 Jul 00:38:01 00:42:15 78° 77° (ENE) 00:46:29 437.305
DUCHIFAT 1 07 Jul 00:41:58 00:45:30 26° 287° (WNW) 00:48:59 145.980
BEESAT 07 Jul 00:44:29 00:46:25 13° 68° (ENE) 00:48:37 436.000
BUGSAT 1 07 Jul 00:46:44 00:50:25 34° 286° (WNW) 00:54:03 437.445
POLYITAN 1 07 Jul 00:50:56 00:54:04 20° 288° (WNW) 00:57:06 437.675
PCSat 07 Jul 00:51:58 00:57:20 62° 63° (ENE) 01:02:41 145.827
CUBEBUG 1 07 Jul 00:54:51 00:56:14 11° 269° (W) 00:57:17 437.445
SWISSCUBE 07 Jul 00:58:52 01:02:19 21° 71° (ENE) 01:05:57 437.505
ITUPSAT 1 07 Jul 01:05:24 01:08:58 22° 71° (ENE) 01:12:42 437.325
Cosmos 2491 07 Jul 01:15:38 01:21:46 22° 70° (ENE) 01:28:19 435.465 / 435.565
SO-50 07 Jul 01:26:40 01:31:29 50° 60° (ENE) 01:36:10 436.795
Oscar 19 07 Jul 01:32:51 01:37:10 28° 96° (E) 01:41:35 437.125/150
YUBILEINY 07 Jul 01:43:55 01:48:14 16° 84° (E) 01:53:12 435.215
Gurwin Techsat 1B 07 Jul 02:01:53 02:04:21 14° 91° (E) 02:07:10 435.225
BEESAT 07 Jul 02:19:14 02:23:52 51° 260° (W) 02:28:31 436.000
SWISSCUBE 07 Jul 02:35:47 02:40:01 30° 263° (W) 02:44:11 437.505
PCSat 07 Jul 02:37:58 02:40:19 12° 255° (WSW) 02:42:16 145.827
RS-15 07 Jul 02:40:48 02:51:30 59° 303° (WNW) 03:02:25 29.354- 29.394
ITUPSAT 1 07 Jul 02:42:33 02:46:43 29° 263° (W) 02:50:50 437.325
AIST 1 07 Jul 02:43:29 02:47:48 66° 83° (E) 02:52:04
KKS-1 07 Jul 02:48:39 02:52:55 48° 75° (ENE) 02:57:13 437.445
SO-50 07 Jul 03:09:04 03:11:37 14° 251° (WSW) 03:13:52 436.795
Cosmos 2491 07 Jul 03:10:44 03:19:20 63° 267° (W) 03:27:49 435.465 / 435.565
Oscar 19 07 Jul 03:12:12 03:16:27 26° 289° (WNW) 03:20:35 437.125/150
JAS-2 07 Jul 03:27:24 03:33:43 35° 97° (E) 03:40:38 435.910
ITAMSAT 1 07 Jul 03:29:09 03:34:22 72° 283° (WNW) 03:39:32 435.822/435.867
MOZHAYETS 4 07 Jul 03:29:28 03:30:36 11° 69° (ENE) 03:32:02
STARS 07 Jul 03:33:31 03:37:55 82° 258° (WSW) 03:42:19 437.465
YUBILEINY 07 Jul 03:35:34 03:44:16 79° 277° (W) 03:52:59 435.215
Gurwin Techsat 1B 07 Jul 03:39:32 03:44:42 53° 286° (WNW) 03:49:51 435.225
AO-7 07 Jul 03:46:05 03:52:40 27° 96° (E) 03:59:32 29.400- 29.500
HORYU 2 07 Jul 03:47:48 03:51:02 20° 95° (E) 03:54:25 437.375
VERMONT LUNAR 07 Jul 04:15:36 04:16:52 12° 141° (SE) 04:18:14 437.305
KKS-1 07 Jul 04:28:35 04:29:51 11° 268° (W) 04:30:49 437.445
RS-15 07 Jul 05:01:33 05:07:13 14° 330° (NNW) 05:12:19 29.354- 29.394
Cosmos 2504 07 Jul 05:02:33 05:08:44 36° 90° (E) 05:14:59 435.465 / 435.565
MOZHAYETS 4 07 Jul 05:02:57 05:07:24 54° 260° (W) 05:11:54
JAS-2 07 Jul 05:12:21 05:18:42 38° 288° (WNW) 05:25:28 435.910
HORYU 2 07 Jul 05:23:52 05:27:40 27° 288° (WNW) 05:31:24 437.375
CUBESAT XI-V 07 Jul 05:38:26 05:42:09 24° 72° (ENE) 05:45:59 437.345
YUBILEINY 07 Jul 05:40:27 05:42:45 11° 296° (WNW) 05:44:09 435.215
ISS 07 Jul 05:40:59 05:43:31 22° 128° (SE) 05:46:06 145.825
